When you browse on this site, cookies collect data to enhance your experience and personalize the content and advertising you see.
Visit our Privacy Policy to learn more. By continuing to use the site, you agree to this use of cookies and data.
  • En España
  • Lista de países
  • Para 7 días
  • Temperatura del agua
  • El tiempo en el mapa
  • Informadores
  • user-avatar
    Iniciar sesión

    Tiempo cada hora Kokchetaw

    Hoy, 15 Noviembre, Viernes

    Tiempo Temperatura Precipitaciones Viento Presión Humedad
    00:00 -16°C° 0 mm 3 mps 755 mmHg 82%
    01:00 -16°C° 0 mm 3 mps 755 mmHg 82%
    02:00 -16°C° 0 mm 3 mps 755 mmHg 82%
    03:00 -15°C° 0 mm 2 mps 756 mmHg 82%
    04:00 -16°C° 0 mm 2 mps 756 mmHg 82%
    05:00 -16°C° 0 mm 2 mps 757 mmHg 85%
    06:00 -14°C° 0 mm 1 mps 757 mmHg 84%
    07:00 -14°C° 0 mm 1 mps 757 mmHg 83%
    08:00 -14°C° 0 mm 1 mps 758 mmHg 82%
    09:00 -13°C° 0 mm 1 mps 758 mmHg 76%
    10:00 -13°C° 0 mm 1 mps 758 mmHg 71%
    11:00 -12°C° 0 mm 1 mps 759 mmHg 64%
    12:00 -11°C° 0 mm 1 mps 759 mmHg 64%
    13:00 -11°C° 0 mm 1 mps 759 mmHg 63%
    14:00 -10°C° 0 mm 1 mps 759 mmHg 63%
    15:00 -13°C° 0 mm 2 mps 759 mmHg 65%
    16:00 -13°C° 0 mm 2 mps 759 mmHg 68%
    17:00 -14°C° 0 mm 2 mps 759 mmHg 71%
    18:00 -15°C° 0 mm 3 mps 759 mmHg 70%
    19:00 -15°C° 0 mm 3 mps 759 mmHg 68%
    20:00 -17°C° 0 mm 4 mps 758 mmHg 66%
    21:00 -16°C° 0 mm 4 mps 759 mmHg 65%
    22:00 -17°C° 0 mm 5 mps 759 mmHg 64%
    23:00 -17°C° 0 mm 5 mps 759 mmHg 63%

    Mañana, 16 Noviembre, Sábado

    Tiempo Temperatura Precipitaciones Viento Presión Humedad
    00:00 -17°C° 0 mm 6 mps 758 mmHg 63%
    01:00 -17°C° 0 mm 6 mps 758 mmHg 63%
    02:00 -18°C° 0 mm 7 mps 757 mmHg 62%
    03:00 -17°C° 0 mm 7 mps 757 mmHg 64%
    04:00 -17°C° 0 mm 7 mps 757 mmHg 65%
    05:00 -17°C° 0 mm 7 mps 757 mmHg 66%
    06:00 -15°C° 0 mm 7 mps 756 mmHg 65%
    07:00 -15°C° 0 mm 7 mps 756 mmHg 65%
    08:00 -14°C° 0 mm 7 mps 755 mmHg 64%
    09:00 -13°C° 0 mm 7 mps 755 mmHg 64%
    10:00 -12°C° 0 mm 8 mps 754 mmHg 64%
    11:00 -12°C° 0 mm 8 mps 754 mmHg 63%
    12:00 -11°C° 0 mm 8 mps 753 mmHg 65%
    13:00 -11°C° 0 mm 8 mps 753 mmHg 67%
    14:00 -10°C° 0 mm 8 mps 752 mmHg 70%
    15:00 -10°C° 0 mm 8 mps 752 mmHg 74%
    16:00 -11°C° 0 mm 7 mps 752 mmHg 78%
    17:00 -11°C° 0 mm 7 mps 751 mmHg 82%
    18:00 -11°C° 0 mm 7 mps 751 mmHg 84%
    19:00 -10°C° 0 mm 6 mps 751 mmHg 86%
    20:00 -10°C° 0 mm 6 mps 751 mmHg 88%
    21:00 -10°C° 0 mm 6 mps 751 mmHg 89%
    22:00 -9°C° 0 mm 6 mps 751 mmHg 90%
    23:00 -8°C° 0 mm 5 mps 751 mmHg 91%

    Pasado mañana, 17 Noviembre, Domingo

    Tiempo Temperatura Precipitaciones Viento Presión Humedad
    00:00 -7°C° 0 mm 5 mps 751 mmHg 92%
    01:00 -7°C° 0 mm 5 mps 750 mmHg 92%
    02:00 -7°C° 0 mm 5 mps 750 mmHg 93%
    03:00 -7°C° 0 mm 5 mps 750 mmHg 93%
    04:00 -7°C° 0 mm 5 mps 750 mmHg 93%
    05:00 -6°C° 0 mm 5 mps 750 mmHg 93%
    06:00 -7°C° 0 mm 5 mps 749 mmHg 92%
    07:00 -8°C° 0 mm 6 mps 749 mmHg 91%
    08:00 -8°C° 0 mm 6 mps 748 mmHg 90%
    09:00 -6°C° 0 mm 6 mps 748 mmHg 86%
    10:00 -6°C° 0 mm 7 mps 748 mmHg 81%
    11:00 -4°C° 0 mm 7 mps 748 mmHg 77%
    12:00 -4°C° 0 mm 7 mps 747 mmHg 77%
    13:00 -4°C° 0 mm 6 mps 746 mmHg 77%
    14:00 -4°C° 0 mm 6 mps 746 mmHg 77%
    15:00 -4°C° 0 mm 6 mps 745 mmHg 80%
    16:00 -5°C° 0 mm 6 mps 745 mmHg 82%
    17:00 -6°C° 0 mm 6 mps 744 mmHg 84%
    18:00 -6°C° 0 mm 6 mps 744 mmHg 86%
    19:00 -6°C° 0 mm 6 mps 744 mmHg 88%
    20:00 -6°C° 0 mm 6 mps 743 mmHg 90%
    21:00 -6°C° 0 mm 5 mps 743 mmHg 91%
    22:00 -6°C° 0 mm 5 mps 743 mmHg 92%
    23:00 -6°C° 0 mm 5 mps 743 mmHg 93%

    18 Noviembre, Lunes

    Tiempo Temperatura Precipitaciones Viento Presión Humedad
    00:00 -6°C° 0 mm 5 mps 742 mmHg 93%
    01:00 -6°C° 0 mm 5 mps 742 mmHg 94%
    02:00 -6°C° 0 mm 5 mps 742 mmHg 94%
    03:00 -6°C° 0.1 mm 5 mps 742 mmHg 94%
    04:00 -6°C° 0.1 mm 5 mps 742 mmHg 94%
    05:00 -6°C° 0.1 mm 5 mps 742 mmHg 95%
    06:00 -6°C° 0.1 mm 5 mps 742 mmHg 95%
    07:00 -7°C° 0.1 mm 4 mps 743 mmHg 95%
    08:00 -7°C° 0.1 mm 4 mps 743 mmHg 95%
    09:00 -5°C° 0.1 mm 4 mps 743 mmHg 94%
    10:00 -6°C° 0.1 mm 5 mps 743 mmHg 93%
    11:00 -5°C° 0.1 mm 5 mps 743 mmHg 91%
    12:00 -5°C° 0 mm 5 mps 743 mmHg 90%
    13:00 -5°C° 0 mm 5 mps 743 mmHg 89%
    14:00 -4°C° 0 mm 4 mps 743 mmHg 87%
    15:00 -4°C° 0 mm 4 mps 743 mmHg 89%
    16:00 -4°C° 0 mm 4 mps 742 mmHg 90%
    17:00 -5°C° 0 mm 4 mps 742 mmHg 92%
    18:00 -5°C° 0.1 mm 4 mps 742 mmHg 92%
    19:00 -5°C° 0.1 mm 4 mps 741 mmHg 93%
    20:00 -5°C° 0.1 mm 4 mps 740 mmHg 93%
    21:00 -7°C° 0.5 mm 4 mps 740 mmHg 94%
    22:00 -6°C° 0.5 mm 3 mps 739 mmHg 94%
    23:00 -6°C° 0.5 mm 3 mps 738 mmHg 95%

    19 Noviembre, Martes

    Tiempo Temperatura Precipitaciones Viento Presión Humedad
    00:00 -6°C° 0.4 mm 3 mps 737 mmHg 95%
    01:00 -6°C° 0.4 mm 3 mps 737 mmHg 95%
    02:00 -6°C° 0.4 mm 3 mps 736 mmHg 95%
    03:00 -6°C° 0.4 mm 3 mps 735 mmHg 95%
    04:00 -6°C° 0.4 mm 3 mps 734 mmHg 96%
    05:00 -6°C° 0.4 mm 3 mps 733 mmHg 96%
    06:00 -6°C° 0.8 mm 3 mps 732 mmHg 96%
    07:00 -5°C° 0.8 mm 3 mps 731 mmHg 96%
    08:00 -5°C° 0.8 mm 3 mps 730 mmHg 96%
    09:00 -5°C° 0.7 mm 3 mps 730 mmHg 96%
    10:00 -4°C° 0.7 mm 3 mps 730 mmHg 96%
    11:00 -4°C° 0.7 mm 3 mps 730 mmHg 96%
    12:00 -4°C° 0.4 mm 4 mps 730 mmHg 96%
    13:00 -6°C° 0.4 mm 5 mps 730 mmHg 96%
    14:00 -7°C° 0.4 mm 5 mps 730 mmHg 96%
    15:00 -11°C° 0.6 mm 6 mps 731 mmHg 96%
    16:00 -15°C° 0.6 mm 6 mps 731 mmHg 95%
    17:00 -18°C° 0.6 mm 7 mps 731 mmHg 95%
    18:00 -20°C° 0.2 mm 6 mps 731 mmHg 94%
    19:00 -21°C° 0.2 mm 6 mps 731 mmHg 94%
    20:00 -22°C° 0.2 mm 6 mps 732 mmHg 94%
    21:00 -23°C° 0.2 mm 6 mps 732 mmHg 95%
    22:00 -22°C° 0.2 mm 5 mps 732 mmHg 95%
    23:00 -24°C° 0.2 mm 5 mps 732 mmHg 96%

    20 Noviembre, Miércoles

    Tiempo Temperatura Precipitaciones Viento Presión Humedad
    00:00 -24°C° 0.1 mm 5 mps 732 mmHg 96%
    01:00 -25°C° 0.1 mm 5 mps 732 mmHg 96%
    02:00 -24°C° 0.1 mm 4 mps 732 mmHg 96%
    03:00 -24°C° 0.2 mm 4 mps 731 mmHg 96%
    04:00 -24°C° 0.2 mm 4 mps 731 mmHg 96%
    05:00 -24°C° 0.2 mm 4 mps 731 mmHg 96%
    06:00 -23°C° 0.3 mm 4 mps 731 mmHg 96%
    07:00 -23°C° 0.3 mm 4 mps 731 mmHg 97%
    08:00 -23°C° 0.3 mm 4 mps 731 mmHg 97%
    09:00 -23°C° 0.4 mm 4 mps 731 mmHg 96%
    10:00 -22°C° 0.4 mm 4 mps 731 mmHg 96%
    11:00 -22°C° 0.4 mm 4 mps 731 mmHg 95%
    12:00 -21°C° 0.3 mm 5 mps 731 mmHg 95%
    13:00 -21°C° 0.3 mm 5 mps 731 mmHg 94%
    14:00 -21°C° 0.3 mm 5 mps 731 mmHg 94%
    15:00 -22°C° 0.2 mm 6 mps 731 mmHg 94%
    16:00 -22°C° 0.2 mm 6 mps 731 mmHg 94%
    17:00 -22°C° 0.2 mm 6 mps 731 mmHg 94%
    18:00 -22°C° 0.2 mm 6 mps 732 mmHg 94%
    19:00 -23°C° 0.2 mm 7 mps 732 mmHg 94%
    20:00 -23°C° 0.2 mm 7 mps 732 mmHg 94%
    21:00 -23°C° 0.2 mm 7 mps 732 mmHg 94%
    22:00 -23°C° 0.2 mm 7 mps 732 mmHg 94%
    23:00 -23°C° 0.2 mm 7 mps 732 mmHg 94%
    Mostrar más